Find Starlink 34365

NORAD ID: 64671 Int'l Des: 2025-139 Owner: SPXS Country: US Constellation: starlink operational
LEOCIRCULAR

現在のビュー

3D地球を読み込み中...

About Starlink 34365

Starlink 34365 (NORAD 64671) is a starlink constellation satellite (v2 mini) launched Jun 28, 2025 by SPXS of US. It operates in LEO, CIRCULAR orbit with a mass of 575.00 kg.

次回通過

Passes for default location (London). Set your location on the main map for personalized predictions.

高度履歴

Loading altitude history...

軌道要素

1 64671U 25139H 26237.21597750 .00023488 00000-0 70437-3 0 9999
2 64671 53.1599 60.8910 0000579 107.7406 252.3660 15.34388996 66190
Epoch: Aug 25, 2026 • Age: 30 hours

現在のステータス

高度 466.7 km
遠地点 / 近地点 N/A
速度 7.64 km/s
衛星直下点 43.62°N, 41.56°W
打ち上げ日 Jun 28, 2025
運用期間 1.1 years
タイプ internet

技術仕様

分類 Payload
質量 575.00 kg
乾燥質量 530.00 kg
総質量 575.00 kg
長さ 0.30 m
直径 4.10 m
スパン 29.00 m
形状 Box + pan
製造者 SPXS
バスタイプ Starlink V2MO
フェーズステータス In Orbit
所有者/国 SPXS/US

Most Searched